Simultaneous Nadir Overpasses (SNOs) Predictions

Prediction of SNOs between NOAA-19 and METOP-C Satellite Orbit:

Table of predicted SNOs for the next 14.0 days since TLE Epoch: 1/8/2022
Index Date (NOAA-19) Time (NOAA-19) Lat,Lon (NOAA-19) SZA (NOAA-19 ) Date (METOP-C) Time (METOP-C) Lat,Lon (METOP-C) SZA (METOP-C ) Distance(km) Time Diff (sec)
1 01/14/2022 20:54:00 80.73,-101.77 103.01 01/14/2022 20:55:04 80.73,-101.89 103.02 2.07 64
2 01/14/2022 21:44:59 -80.73, 65.56 77.00 01/14/2022 21:45:44 -80.74, 65.64 76.96 2.19 45
3 01/14/2022 22:36:00 80.73,-127.22 103.00 01/14/2022 22:36:26 80.72,-127.36 102.99 2.69 26
4 01/14/2022 23:26:59 -80.73, 40.10 77.01 01/14/2022 23:27:06 -80.74, 40.16 76.99 1.34 7
5 01/15/2022 00:18:00 80.73,-152.67 102.99 01/15/2022 00:17:47 80.74,-152.50 103.01 3.17 13
6 01/15/2022 01:08:59 -80.73, 14.65 77.02 01/15/2022 01:08:28 -80.73, 14.68 77.03 0.57 31
7 01/15/2022 02:00:00 80.73,-178.11 102.98 01/15/2022 01:59:09 80.73,-177.98 102.97 2.45 51



Historial Predications of SNOs between NOAA-19 and METOP-C
